Location: Sungai Bunut
(2.6333°N, 113.7333°E)
Time: 17:12:31
(UTC+00:00)

Vanguard 3 - Pass Details

Date: 05 December 2023
Orbit: 508 x 3239 km, 33.4° (Epoch: 28 February)

Event Time Altitude Azimuth Distance (km) Brightness Sun altitude
Rises 12:35:25 0° 253° (WSW) 7,163 13.0 -33.1°
Reaches altitude 10° 12:41:03 10° 260° (W) 5,991 12.3 -34.4°
Maximum altitude 12:56:58 39° 322° (NW) 3,224 10.1 -38.0°
Enters shadow 13:00:26 35° 350° (N) 3,135 9.8 -38.8°
Drops below altitude 10° 13:07:26 10° 28° (NNE) 3,971 - -40.3°
Sets 13:10:23 0° 37° (NE) 4,619 - -41.0°
